Weather History for KTOL - July, 2013

Change the Weather History Date:

Monday, July 8, 2013

  Actual Average Record
Temperature  
Mean Temperature 75 °F 74 °F  
Max Temperature 83 °F 85 °F 103 °F (1936)
Min Temperature 66 °F 63 °F 44 °F (1961)
Degree Days  
Heating Degree Days 0 0  
Month to date heating degree days 1 0  
Since 1 June heating degree days 32 35  
Since 1 July heating degree days 1 0  
Cooling Degree Days 10 9  
Month to date cooling degree days 57 70  
Year to date cooling degree days 313 293  
Since 1 June cooling degree days 219 240  
Growing Degree Days 24 (Base 50)    
Moisture  
Dew Point 69 °F    
Average Humidity 85    
Maximum Humidity 100    
Minimum Humidity 69    
Precipitation  
Precipitation 0.51 in 0.10 in 1.21 in (1957)
Month to date precipitation 0.98 0.79  
Year to date precipitation 21.83 17.73  
Snow  
Snow 0.00 in 0.00 in - ()
Month to date snowfall 0.0 0.0  
Since 1 June snowfall 0.0 0.0  
Since 1 July snowfall 0.0 0.0  
Snow Depth 0.00 in    
Sea Level Pressure  
Sea Level Pressure 30.03 in    
Wind  
Wind Speed 6 mph (SW)    
Max Wind Speed 20 mph    
Max Gust Speed 26 mph    
Visibility 8 miles    
Events Rain , Thunderstorm    
T = Trace of Precipitation, MM = Missing Value Source: NWS Daily Summary

Daily Weather History Graph

Daily Weather History Graph

Search for Another Location

Airport or City:

Trip Planner

Search our weather history database for the weather conditions in past years. The results will help you decide how hot, cold, wet, or windy it might be!

Date:

Astronomy

Jul. 08, 2013 Rise Set
Actual Time 6:09 AM EDT 9:11 PM EDT
Civil Twilight 5:35 AM EDT 9:44 PM EDT
Nautical Twilight 4:52 AM EDT 10:27 PM EDT
Astronomical Twilight 4:02 AM EDT 11:17 PM EDT
Moon 6:38 AM EDT (7/8) 9:11 PM EDT (7/8)
Length of Visible Light 16h 09m
Length of Day
15h 02m
New Moon, 0% of the Moon is Illuminated
Jul 8
New Moon
Jul 15
First Quarter
Jul 22
Full
Jul 29
Last Quarter
Aug 6
New

Hourly Weather History & Observations

Time (EDT) Temp. Heat Index Dew Point Humidity Pressure Visibility Wind Dir Wind Speed Gust Speed Precip Events Conditions
12:21 AM 68.0 °F - 64.4 °F 88% 30.06 in 10.0 mi West 4.6 mph - 0.00 in Thunderstorm Overcast
12:52 AM 68.0 °F - 64.9 °F 90% 30.05 in 9.0 mi West 4.6 mph - 0.00 in Rain , Thunderstorm Light Rain
1:21 AM 68.0 °F - 64.4 °F 88% 30.06 in 6.0 mi West 3.5 mph - 0.02 in Rain Light Rain
1:52 AM 66.9 °F - 64.9 °F 93% 30.03 in 7.0 mi Calm Calm - 0.03 in   Mostly Cloudy
2:52 AM 68.0 °F - 66.0 °F 93% 30.04 in 7.0 mi SSW 4.6 mph - N/A   Partly Cloudy
3:52 AM 66.9 °F - 66.0 °F 97% 30.04 in 7.0 mi SSW 3.5 mph - N/A   Partly Cloudy
4:52 AM 66.9 °F - 64.0 °F 90% 30.04 in 10.0 mi Calm Calm - N/A   Clear
5:52 AM 66.9 °F - 64.0 °F 90% 30.04 in 10.0 mi SW 5.8 mph - N/A   Clear
6:52 AM 66.9 °F - 64.0 °F 90% 30.05 in 10.0 mi Calm Calm - N/A   Clear
7:52 AM 70.0 °F - 66.0 °F 87% 30.05 in 10.0 mi SSW 4.6 mph - N/A   Partly Cloudy
8:52 AM 73.0 °F - 66.9 °F 81% 30.06 in 10.0 mi SW 8.1 mph - N/A   Partly Cloudy
9:52 AM 73.9 °F - 68.0 °F 82% 30.06 in 10.0 mi SSW 5.8 mph - N/A   Mostly Cloudy
10:52 AM 78.1 °F - 70.0 °F 76% 30.05 in 10.0 mi SSW 4.6 mph - N/A   Clear
11:52 AM 80.1 °F 83.2 °F 70.0 °F 71% 30.05 in 10.0 mi SW 6.9 mph - N/A   Clear
12:52 PM 81.0 °F 84.9 °F 71.1 °F 72% 30.04 in 10.0 mi South 9.2 mph - N/A   Partly Cloudy
1:52 PM 82.9 °F 88.0 °F 72.0 °F 69% 30.02 in 10.0 mi SW 8.1 mph - N/A   Scattered Clouds
2:12 PM 82.4 °F 87.2 °F 71.6 °F 70% 30.03 in 10.0 mi SW 12.7 mph - N/A   Mostly Cloudy
2:32 PM 82.4 °F 87.2 °F 71.6 °F 70% 30.02 in 10.0 mi SW 9.2 mph 19.6 mph N/A   Mostly Cloudy
2:39 PM 82.4 °F 87.2 °F 71.6 °F 70% 30.02 in 10.0 mi SW 8.1 mph - N/A   Mostly Cloudy
2:52 PM 82.0 °F 86.7 °F 72.0 °F 71% 30.00 in 10.0 mi SW 4.6 mph - N/A   Mostly Cloudy
3:52 PM 81.0 °F 84.9 °F 71.1 °F 72% 30.01 in 10.0 mi SW 10.4 mph - N/A   Mostly Cloudy
4:18 PM 80.6 °F 84.6 °F 71.6 °F 74% 30.01 in 10.0 mi WSW 11.5 mph 19.6 mph 0.00 in Rain , Thunderstorm Light Thunderstorms and Rain
4:50 PM 80.6 °F 83.9 °F 69.8 °F 70% 30.01 in 10.0 mi West 10.4 mph - 0.00 in   Overcast
4:52 PM 81.0 °F 84.4 °F 70.0 °F 69% 30.00 in 10.0 mi West 12.7 mph - 0.00 in Rain Light Rain
5:52 PM 79.0 °F - 66.9 °F 66% 30.00 in 10.0 mi West 10.4 mph - 0.00 in   Scattered Clouds
6:52 PM 78.1 °F - 68.0 °F 71% 30.00 in 10.0 mi WSW 6.9 mph - 0.00 in   Overcast
7:52 PM 75.9 °F - 70.0 °F 82% 30.01 in 10.0 mi SSW 3.5 mph - 0.00 in   Overcast
8:52 PM 75.9 °F - 70.0 °F 82% 29.99 in 10.0 mi SSW 4.6 mph - N/A   Overcast
9:52 PM 73.9 °F - 70.0 °F 87% 30.00 in 3.0 mi SSW 5.8 mph - 0.02 in Rain Rain
9:55 PM 73.4 °F - 69.8 °F 88% 30.01 in 1.8 mi SW 6.9 mph - 0.04 in Rain Heavy Rain
9:59 PM 73.4 °F - 69.8 °F 88% 30.01 in 0.8 mi South 9.2 mph - 0.11 in Rain Heavy Rain
10:09 PM 71.6 °F - 69.8 °F 94% 30.02 in 1.8 mi South 6.9 mph - 0.31 in Rain Light Rain
10:11 PM 71.6 °F - 69.8 °F 94% 30.01 in 3.0 mi South 5.8 mph - 0.31 in Rain Light Rain
10:52 PM 72.0 °F - 70.0 °F 93% 30.01 in 8.0 mi South 3.5 mph - 0.31 in Rain Light Rain
11:52 PM 71.1 °F - 69.1 °F 93% 29.99 in 7.0 mi South 8.1 mph - 0.00 in   Mostly Cloudy